Location: Krasnoyarskiy Pitomnik
(51.1333°N, 71.6167°E)
Time: 21:24:09
(UTC+00:00)

A-11 Canister half - Pass Details

Date: 20 April 2024
Orbit: 1525 x 1683 km, 47.3° (Epoch: 28 May)

Event Time Altitude Azimuth Distance (km) Brightness Sun altitude
Rises 06:49:34 0° 286° (WNW) 4,941 11.5 50.3°
Reaches altitude 10° 06:52:54 10° 280° (W) 3,951 11.1 50.4°
Maximum altitude 07:02:17 45° 213° (SSW) 2,169 11.3 50.5°
Drops below altitude 10° 07:11:31 10° 145° (SE) 3,880 11.8 50.6°
Sets 07:14:47 0° 139° (SE) 4,845 12.0 50.6°
